Date,TemperatureHighF,TemperatureAvgF,TemperatureLowF,DewpointHighF,DewpointAvgF,DewpointLowF,HumidityHigh,HumidityAvg,HumidityLow,PressureMaxIn,PressureMinIn,WindSpeedMaxMPH,WindSpeedAvgMPH,GustSpeedMaxMPH,PrecipitationSumIn
2013-1-1,14.1,7.1,-1.4,9.3,1.4,-4.3,90,78,58,30.17,30.01,10,2,11,0.00
2013-1-2,21.9,16.3,11.6,14.2,11.8,9.0,93,82,70,30.02,29.93,7,1,7,0.00
2013-1-3,20.7,16.4,11.1,17.6,13.0,7.5,92,86,80,30.06,29.91,14,2,14,0.00
2013-1-4,33.2,19.6,9.9,22.0,14.6,7.5,91,81,63,30.09,29.87,12,2,12,0.00
2013-1-5,28.4,17.9,3.5,20.9,13.6,0.8,94,83,69,30.09,29.79,7,0,7,0.00
2013-1-6,27.7,22.1,11.9,23.3,19.0,9.7,95,88,74,30.13,29.80,8,1,8,0.00
2013-1-7,34.2,24.4,8.9,24.8,18.9,6.4,92,79,66,30.09,29.79,17,3,18,0.00
2013-1-8,41.3,27.5,10.3,29.5,22.7,7.9,95,83,52,29.99,29.70,14,2,14,0.02
2013-1-9,35.3,30.6,19.8,29.6,23.9,16.3,88,76,60,30.32,29.70,24,4,24,0.00
2013-1-10,42.4,29.4,17.9,31.9,20.0,15.2,96,72,34,30.36,29.79,9,2,9,0.06
2013-1-11,41.4,36.2,33.0,41.0,35.6,32.0,99,98,96,29.79,29.38,13,1,13,0.03
2013-1-12,44.7,28.1,13.2,43.5,23.9,7.9,99,84,77,29.89,29.32,20,4,20,0.00
2013-1-13,14.1,11.7,4.1,9.6,6.9,0.7,86,81,75,30.10,29.84,13,2,13,0.00
2013-1-14,14.1,6.3,-0.7,6.9,1.9,-3.4,90,82,71,30.33,30.10,14,2,14,0.00
2013-1-15,25.8,14.6,0.2,15.6,8.5,-2.5,93,77,53,30.32,29.83,13,2,13,0.00
2013-1-16,27.0,21.1,11.9,23.5,16.0,4.9,94,80,67,30.01,29.54,16,3,16,0.00
2013-1-17,11.9,5.0,-2.8,5.5,-1.4,-5.8,88,75,61,30.32,30.01,12,2,12,0.00
2013-1-18,27.8,14.7,-4.2,23.6,11.7,-7.4,94,88,80,30.32,29.70,7,0,7,0.00
2013-1-19,37.2,24.3,2.4,32.2,20.7,-3.8,95,86,70,29.82,29.44,22,3,23,0.06
2013-1-20,5.4,-0.2,-5.9,-3.2,-6.7,-9.7,84,74,58,30.17,29.82,17,3,17,0.00
2013-1-21,-6.0,-11.6,-15.7,-9.6,-17.8,-21.2,85,73,58,30.21,30.07,15,3,15,0.00
2013-1-22,-0.1,-10.3,-18.7,-12.1,-17.3,-23.2,81,71,55,30.34,30.21,10,2,11,0.00
2013-1-23,8.3,-3.1,-14.1,3.3,-7.6,-17.8,85,81,70,30.47,30.06,17,2,17,0.00
2013-1-24,9.1,-1.0,-16.5,2.1,-7.5,-20.6,87,74,51,30.65,30.30,6,1,6,0.00
2013-1-25,16.0,10.8,5.6,11.1,7.3,1.8,89,85,79,30.32,29.86,8,1,8,0.00
2013-1-26,22.0,12.4,-3.0,13.9,7.2,-6.2,91,80,65,30.33,30.12,7,1,8,0.00
2013-1-27,30.1,24.0,18.3,27.0,18.6,11.2,96,80,58,30.23,29.80,7,2,7,0.00
2013-1-28,35.9,30.1,27.4,31.0,28.2,26.4,96,93,81,29.83,29.67,8,1,8,0.07
2013-1-29,36.8,32.3,29.2,36.3,31.3,27.6,98,96,93,29.67,29.40,10,1,11,0.00
2013-1-30,29.7,19.9,10.8,28.2,17.6,8.2,95,91,86,29.50,29.32,12,1,12,0.00
2013-1-31,11.3,6.3,-0.4,8.0,2.0,-4.1,89,82,72,30.00,29.44,18,3,18,0.00
2013-2-1,2.8,-4.2,-12.1,-4.2,-10.4,-16.0,85,74,59,30.18,30.00,8,2,10,0.00
2013-2-2,12.0,2.0,-9.4,1.9,-4.1,-12.7,87,75,61,30.13,29.92,7,0,7,0.00
2013-2-3,11.3,2.8,-10.1,1.9,-2.7,-13.8,87,78,60,29.98,29.84,12,2,13,0.00
2013-2-4,14.4,0.1,-16.2,1.0,-7.5,-19.8,88,72,41,30.01,29.83,9,0,9,0.00
2013-2-5,20.2,11.4,-2.2,15.1,7.4,-5.2,92,84,67,30.03,29.65,8,1,8,0.00
2013-2-6,23.0,9.3,-9.3,17.6,5.9,-12.9,94,86,67,30.16,30.02,7,0,8,0.00
2013-2-7,23.1,20.1,17.3,21.4,18.4,14.4,94,93,88,30.18,30.02,11,0,11,0.00
2013-2-8,25.5,13.1,3.8,14.5,8.1,1.0,92,81,58,30.33,30.17,8,0,8,0.00
2013-2-9,26.7,14.6,0.4,20.0,10.9,-2.5,95,85,68,30.31,30.00,9,1,10,0.00
2013-2-10,32.5,27.0,21.2,32.0,26.0,19.9,98,96,94,30.01,29.21,7,2,7,0.00
2013-2-11,32.6,27.1,19.6,32.0,25.7,17.4,98,94,89,29.83,29.17,2,0,2,0.00
2013-2-12,22.2,19.3,17.4,19.4,16.7,14.2,93,89,84,29.90,29.70,0,0,0,0.00
2013-2-13,35.5,26.7,17.9,30.9,24.5,16.7,96,91,81,29.70,29.55,0,0,0,0.00
2013-2-14,29.1,24.0,12.7,27.7,21.1,9.5,97,89,79,29.95,29.53,0,0,0,0.00
2013-2-15,16.5,9.3,1.1,9.6,5.0,-2.6,90,82,68,30.15,29.94,0,0,0,0.00
2013-2-16,14.0,2.9,-10.9,5.5,-1.9,-14.2,89,81,61,30.15,30.09,0,0,0,0.00
2013-2-17,24.4,4.8,-18.7,10.6,-3.8,-22.7,88,69,41,30.16,29.88,0,0,0,0.00
2013-2-18,37.2,27.2,17.5,28.8,22.2,10.6,95,82,68,29.88,29.39,8,0,8,0.01
2013-2-19,25.7,9.9,2.4,24.0,5.5,-2.3,94,82,69,30.10,29.39,17,3,17,0.00
2013-2-20,20.7,10.6,-1.1,10.7,4.8,-4.1,90,78,62,30.40,30.09,11,1,11,0.00
2013-2-21,28.1,12.8,-7.4,17.3,7.6,-10.7,93,80,61,30.45,30.13,10,1,10,0.00
2013-2-22,24.7,20.8,15.7,22.2,18.7,13.7,94,92,87,30.14,29.72,10,1,10,0.00
2013-2-23,29.9,21.5,11.5,25.7,19.3,9.6,95,91,81,29.82,29.69,6,0,6,0.00
2013-2-24,31.7,26.0,20.6,23.5,21.7,19.1,95,84,70,30.03,29.82,6,0,6,0.00
2013-2-25,33.0,28.7,22.7,27.4,24.5,20.0,91,84,75,30.06,29.99,5,0,5,0.00
2013-2-26,32.7,27.2,17.4,26.7,23.6,16.0,95,86,75,30.01,29.77,15,2,15,0.00
2013-2-27,31.3,28.6,26.7,28.4,25.3,23.4,92,87,82,29.81,29.68,15,2,16,0.00
2013-2-28,28.2,24.4,19.1,25.0,19.5,14.3,91,82,66,30.13,29.81,14,2,14,0.00
2013-3-1,28.2,19.6,6.5,15.7,11.7,3.5,88,72,51,30.26,30.12,11,2,11,0.00
2013-3-2,29.5,14.4,-2.1,11.3,6.0,-5.0,92,71,40,30.24,30.13,9,1,9,0.00
2013-3-3,31.6,11.4,-9.5,10.5,0.7,-12.9,90,66,29,30.14,30.03,8,0,8,0.00
2013-3-4,34.0,19.3,-0.2,15.6,8.3,-3.4,89,65,39,30.11,30.02,7,1,7,0.00
2013-3-5,29.7,23.5,20.5,20.8,16.0,10.0,92,73,55,30.12,29.96,9,2,9,0.00
2013-3-6,31.8,23.3,9.5,21.6,17.9,6.3,93,81,59,30.26,30.12,9,1,9,0.00
2013-3-7,32.2,18.4,3.6,19.3,12.2,0.7,90,78,56,30.37,30.25,7,0,7,0.00
2013-3-8,41.6,25.7,8.0,24.0,17.7,5.6,92,74,46,30.38,30.18,10,1,10,0.03
2013-3-9,34.3,29.7,26.1,31.3,25.5,22.2,92,84,77,30.18,29.82,11,2,11,0.02
2013-3-10,34.0,31.5,26.6,32.7,30.2,25.6,98,95,90,29.83,29.67,5,1,13,0.05
2013-3-11,28.9,25.0,19.1,26.3,23.0,16.7,96,92,86,29.67,29.53,3,1,10,0.00
2013-3-12,25.1,20.3,16.3,20.4,16.8,13.4,92,86,73,29.96,29.63,4,1,15,0.00
2013-3-13,31.3,19.9,8.5,14.3,10.4,3.4,88,69,41,30.20,29.97,13,1,13,0.00
2013-3-14,34.9,16.2,-3.3,25.5,11.0,-6.2,90,81,43,30.20,29.91,8,1,8,0.01
2013-3-15,33.5,27.4,16.1,27.0,21.3,12.9,91,79,54,29.92,29.80,10,2,10,0.00
2013-3-16,24.2,17.0,8.0,13.3,10.0,4.1,89,74,59,30.13,29.85,14,2,17,0.00
2013-3-17,28.0,13.2,-6.9,10.5,1.7,-10.8,89,63,30,30.24,29.99,9,2,9,0.00
2013-3-18,27.2,20.6,13.7,24.7,17.8,9.6,94,89,79,30.00,29.44,12,2,12,0.00
2013-3-19,28.5,18.0,11.7,15.7,9.3,3.8,90,70,45,29.87,29.46,24,5,24,0.00
2013-3-20,21.0,12.3,2.3,7.9,3.3,-3.2,81,67,50,29.99,29.86,16,3,16,0.00
2013-3-21,29.4,16.5,5.0,16.1,10.2,2.3,90,77,56,29.98,29.93,10,1,10,0.00
2013-3-22,32.4,18.9,-2.3,22.4,13.0,-5.2,90,78,63,30.03,29.96,8,1,8,0.00
2013-3-23,34.2,27.1,21.1,23.2,20.5,17.6,88,76,62,30.10,30.02,7,1,7,0.00
2013-3-24,31.4,26.4,18.6,24.8,20.5,15.3,89,78,69,30.04,29.85,11,1,11,0.00
2013-3-25,36.1,25.4,13.5,24.7,20.0,11.5,95,80,57,30.10,29.87,13,1,13,0.00
2013-3-26,37.3,29.8,22.9,27.0,22.7,18.6,90,76,52,30.18,30.09,8,1,8,0.00
2013-3-27,42.2,32.4,23.8,23.7,20.4,15.7,83,62,41,30.22,30.17,11,1,11,0.00
2013-3-28,45.6,29.8,12.0,22.3,16.9,9.5,92,63,32,30.26,30.18,8,1,8,0.00
2013-3-29,50.6,33.6,13.7,22.6,18.1,11.8,93,59,27,30.25,30.07,9,1,9,0.00
2013-3-30,37.1,34.0,29.9,36.3,30.5,18.6,98,88,59,30.08,29.67,11,1,12,0.78
2013-3-31,36.4,30.6,21.0,32.6,25.3,10.6,98,82,48,29.85,29.56,17,3,17,0.01
2013-4-1,30.2,23.1,16.6,13.4,9.6,6.6,80,57,39,30.07,29.83,17,3,18,0.00
2013-4-2,35.1,24.5,16.0,14.1,10.3,6.3,79,56,35,30.26,30.06,14,2,16,0.00
2013-4-3,42.8,24.4,5.2,17.3,8.5,2.3,89,58,22,30.39,30.05,11,2,12,0.00
2013-4-4,49.2,37.6,27.9,31.5,23.5,17.2,75,57,36,30.07,29.85,15,3,16,0.00
2013-4-5,40.4,31.1,18.1,26.6,17.1,11.2,91,59,32,30.18,30.01,6,1,7,0.00
2013-4-6,45.4,34.7,28.4,36.4,30.9,26.4,97,87,63,30.04,29.43,11,2,11,0.40
2013-4-7,43.8,34.8,30.1,32.0,29.7,27.6,97,82,60,29.85,29.47,13,2,13,0.01
2013-4-8,38.1,34.8,32.5,36.4,33.4,29.2,97,95,84,29.97,29.69,5,0,5,0.37
2013-4-9,36.6,34.2,28.8,35.1,30.3,20.1,98,86,63,30.10,29.93,12,1,13,0.00
2013-4-10,41.5,33.8,27.8,23.8,20.2,13.5,81,59,38,30.11,29.94,15,2,15,0.00
2013-4-11,34.4,29.8,25.4,25.2,22.1,17.4,94,74,56,29.98,29.63,17,4,17,0.00
2013-4-12,35.5,28.6,24.9,28.5,25.2,22.8,94,87,70,29.66,29.57,10,1,10,0.09
2013-4-13,35.4,27.9,20.6,28.3,24.2,15.6,95,86,63,29.92,29.64,15,2,15,0.00
2013-4-14,37.4,25.9,10.7,31.0,22.5,8.5,95,87,60,29.97,29.63,10,2,10,0.00
2013-4-15,46.2,37.1,32.3,38.1,30.4,25.9,98,78,46,29.81,29.53,18,3,20,0.03
2013-4-16,45.1,36.5,28.2,29.9,27.6,23.4,87,71,49,30.29,29.79,12,2,12,0.00
2013-4-17,41.2,33.6,23.9,32.2,27.4,22.2,94,79,61,30.31,29.85,8,1,10,0.02
2013-4-18,35.7,33.8,32.3,34.7,32.9,31.5,98,96,92,29.91,29.13,11,1,11,0.66
2013-4-19,32.4,26.8,20.6,31.9,24.0,16.2,98,89,75,29.83,29.04,17,2,17,0.01
2013-4-20,35.7,24.7,12.7,19.1,15.0,9.8,94,69,35,30.34,29.81,16,2,16,0.00
2013-4-21,36.4,30.3,19.0,31.6,24.7,15.5,92,80,73,30.39,30.10,13,3,14,0.08
2013-4-22,41.1,37.9,33.5,40.2,36.9,32.0,98,96,92,30.12,29.90,8,1,8,0.43
2013-4-23,37.3,32.2,23.6,34.1,29.1,20.6,98,88,66,29.95,29.79,11,1,11,0.27
2013-4-24,46.9,34.1,18.9,32.1,23.0,17.7,96,68,39,29.93,29.81,18,2,18,0.02
2013-4-25,46.3,37.0,28.3,33.4,28.4,23.7,96,74,41,30.14,29.81,15,2,15,0.16
2013-4-26,65.2,45.8,28.0,42.3,35.2,25.0,95,70,41,30.14,29.97,14,2,14,0.01
2013-4-27,70.3,53.0,30.5,49.6,41.5,29.2,97,69,38,30.06,29.85,11,1,11,0.00
2013-4-28,70.5,55.5,39.1,45.6,42.9,37.5,96,66,34,29.87,29.62,12,1,12,0.00
2013-4-29,71.8,56.8,46.7,56.6,51.5,45.6,98,84,49,29.69,29.57,13,1,13,0.33
2013-4-30,80.2,64.5,48.7,60.1,52.0,34.9,99,69,32,29.82,29.42,15,2,17,0.66
2013-5-1,50.7,44.6,34.2,49.1,40.7,30.5,98,87,69,30.30,29.77,9,1,9,0.29
2013-5-2,34.3,31.8,28.6,31.8,29.8,26.5,95,92,88,30.37,30.25,11,2,11,0.06
2013-5-3,33.7,31.0,28.2,32.9,29.9,26.6,97,96,93,30.28,30.07,9,2,9,0.00
2013-5-4,70.8,48.2,33.6,53.1,42.4,32.8,98,83,51,30.09,29.98,7,1,7,0.01
2013-5-5,74.3,53.8,34.3,47.1,39.1,28.6,96,65,22,30.06,29.93,8,1,8,0.00
2013-5-6,50.9,38.2,32.1,43.9,36.1,30.8,98,92,77,30.00,29.97,0,0,0,0.00
2013-5-7,79.7,61.1,40.8,46.7,38.8,33.2,89,51,19,29.97,29.85,3,1,8,0.00
2013-5-8,79.7,63.9,42.7,46.5,41.3,37.8,91,49,24,29.90,29.83,6,1,7,0.00
2013-5-9,60.1,48.7,34.7,47.7,41.8,33.4,96,79,57,30.00,29.81,11,1,11,0.43
2013-5-10,61.9,44.9,31.2,35.6,30.9,23.7,96,64,24,30.00,29.77,9,1,10,0.01
2013-5-11,43.4,38.9,32.9,41.1,32.0,25.4,94,77,50,29.93,29.69,24,3,24,0.04
2013-5-12,46.8,36.2,28.2,29.4,23.3,17.5,92,62,33,30.06,29.92,16,2,16,0.00
2013-5-13,58.6,38.6,22.3,35.2,24.1,18.7,94,62,23,30.09,29.73,11,1,11,0.00
2013-5-14,79.3,60.0,39.1,53.1,43.3,33.9,84,56,32,29.73,29.34,10,2,10,0.00
2013-5-15,75.5,63.4,53.1,52.4,43.1,36.1,80,51,25,29.69,29.39,16,3,16,0.00
2013-5-16,74.5,62.0,48.0,45.8,38.2,28.6,84,46,22,29.93,29.69,10,1,10,0.00
2013-5-17,70.7,57.1,47.3,52.6,44.6,38.0,90,65,39,30.00,29.91,9,2,9,0.00
2013-5-18,73.0,59.6,48.7,60.9,53.9,46.9,96,83,62,29.99,29.81,10,2,10,0.09
2013-5-19,83.5,70.0,55.2,64.2,60.8,54.1,97,75,50,29.82,29.58,11,2,11,0.00
2013-5-20,79.8,66.8,56.7,63.5,59.4,55.0,96,79,45,29.60,29.43,13,2,14,0.10
2013-5-21,68.3,61.8,56.3,63.6,59.3,54.6,99,92,74,29.57,29.41,8,0,10,0.57
2013-5-22,57.4,50.6,44.7,56.5,49.6,43.3,99,96,91,29.84,29.55,10,1,10,0.14
2013-5-23,55.5,44.1,34.0,43.2,34.7,30.2,95,72,41,30.26,29.84,15,2,15,0.00
2013-5-24,66.3,48.0,28.2,39.9,32.9,27.2,97,62,27,30.36,30.19,7,1,7,0.00
2013-5-25,69.0,54.5,39.5,43.9,38.6,35.3,92,59,32,30.29,30.17,8,1,8,0.00
2013-5-26,46.0,44.7,43.8,39.4,38.8,38.3,81,80,78,30.21,30.20,0,0,0,0.00
2013-5-27,69.0,56.3,42.0,44.0,39.9,33.5,86,56,35,30.10,29.82,11,2,11,0.00
2013-5-28,55.4,52.9,50.4,53.8,49.1,42.7,98,87,64,29.82,29.63,7,0,7,0.39
2013-5-29,78.3,60.1,52.8,65.6,57.1,52.2,99,91,61,29.77,29.67,8,0,8,0.64
2013-5-30,81.8,67.5,60.1,68.4,64.2,59.7,99,90,59,29.70,29.53,16,2,16,0.44
2013-5-31,80.0,66.3,54.8,64.4,58.9,53.7,98,80,48,29.56,29.48,14,2,14,0.28
2013-6-1,68.8,55.8,41.6,61.1,53.3,40.0,99,92,69,29.68,29.46,10,1,10,0.11
2013-6-2,58.8,46.7,38.5,41.2,38.3,34.6,95,75,43,30.00,29.68,14,2,14,0.00
2013-6-3,68.7,52.1,32.9,42.2,37.5,32.1,98,63,31,30.09,29.99,12,1,12,0.00
2013-6-4,58.8,51.7,42.5,49.3,43.6,37.1,94,75,52,30.15,30.08,4,0,4,0.01
2013-6-5,51.7,48.4,44.2,51.1,47.5,43.4,98,97,93,30.14,29.99,6,0,6,0.55
2013-6-6,54.6,49.1,45.7,52.3,47.7,44.9,99,95,80,30.01,29.98,6,0,6,0.15
2013-6-7,68.8,53.0,41.2,52.9,48.0,40.6,99,85,53,30.02,29.91,6,0,6,0.00
2013-6-8,70.5,58.0,48.4,53.3,51.0,46.9,98,80,50,29.97,29.89,9,1,10,0.00
2013-6-9,68.3,56.7,44.5,58.3,52.2,43.7,98,86,66,29.99,29.85,9,1,9,0.03
2013-6-10,78.3,65.9,51.6,63.6,58.7,50.7,98,79,53,29.85,29.73,4,0,4,0.00
2013-6-11,81.5,66.7,52.5,63.5,58.1,51.6,99,76,52,29.82,29.73,8,1,8,0.00
2013-6-12,81.8,61.4,49.2,61.0,54.1,47.7,97,80,38,29.86,29.70,11,0,11,0.00
2013-6-13,57.5,55.3,52.9,56.3,52.6,49.5,97,91,85,29.86,29.77,2,0,2,0.00
2013-6-14,79.5,61.9,42.4,58.5,49.2,41.3,98,68,34,30.11,29.93,6,0,9,0.00
2013-6-15,65.9,61.7,57.9,64.5,59.3,53.5,99,92,75,29.93,29.74,9,0,9,0.59
2013-6-16,78.5,64.8,54.6,59.7,56.3,50.3,99,78,40,29.86,29.75,15,2,15,0.17
2013-6-17,72.8,60.1,49.5,60.8,55.4,45.1,99,86,62,30.00,29.78,13,0,13,0.12
2013-6-18,74.4,57.3,38.2,50.3,43.9,37.2,98,65,35,30.09,30.00,7,0,7,0.00
2013-6-19,76.3,58.1,40.9,57.1,47.0,39.5,97,71,42,30.09,29.98,8,1,8,0.00
2013-6-20,83.7,66.2,53.2,67.4,60.0,51.5,98,82,50,30.07,29.97,8,0,8,0.62
2013-6-21,71.7,64.9,60.2,67.4,62.9,59.3,99,94,82,30.01,29.71,9,1,9,0.37
2013-6-22,75.1,64.5,60.5,68.1,62.0,59.3,97,92,75,30.02,29.82,10,0,11,0.00
2013-6-23,83.0,72.4,62.7,71.1,66.3,62.0,99,82,64,29.86,29.72,17,1,17,0.00
2013-6-24,84.5,72.9,60.6,71.3,66.2,59.8,99,81,56,29.86,29.73,10,1,10,0.00
2013-6-25,87.8,74.7,64.5,70.2,66.8,63.1,96,78,51,29.77,29.68,8,0,8,0.00
2013-6-26,86.5,70.3,60.9,73.4,66.7,60.0,99,90,61,29.70,29.60,12,1,12,0.51
2013-6-27,80.4,69.1,61.3,70.2,66.0,60.7,99,91,62,29.70,29.60,9,1,9,0.54
2013-6-28,71.8,63.3,57.9,64.9,60.8,56.7,99,92,76,29.66,29.57,7,0,8,0.08
2013-6-29,70.6,61.6,50.9,60.8,56.9,48.7,98,86,62,29.86,29.64,9,0,9,0.06
2013-6-30,79.7,61.0,45.9,55.6,48.8,42.6,98,70,32,30.02,29.86,7,0,10,0.00
2013-7-1,82.8,63.1,47.9,57.2,52.4,46.8,98,73,35,30.08,30.02,9,0,10,0.00
2013-7-2,81.8,60.4,46.4,55.6,48.9,44.1,93,70,29,30.08,29.97,7,0,7,0.00
2013-7-3,81.3,59.8,45.0,59.2,51.0,43.8,97,77,31,30.02,29.91,4,0,6,0.00
2013-7-4,81.3,67.9,57.4,63.0,59.3,56.0,96,76,50,29.93,29.84,8,1,10,0.00
2013-7-5,85.0,72.5,57.7,62.3,59.5,55.7,95,67,42,29.89,29.80,10,1,11,0.00
2013-7-6,89.1,76.3,68.0,67.0,63.7,61.1,81,67,44,29.84,29.77,9,1,9,0.00
2013-7-7,85.3,74.5,68.3,73.3,68.5,63.9,98,82,62,29.82,29.75,6,0,11,0.17
2013-7-8,85.2,73.0,64.7,73.1,68.5,64.3,99,87,61,29.86,29.75,6,0,8,0.65
2013-7-9,76.5,70.4,66.0,72.4,68.2,65.1,99,93,79,29.87,29.62,13,1,13,0.39
2013-7-10,72.1,64.4,54.4,67.0,57.0,52.3,97,78,53,29.92,29.66,16,2,17,0.00
2013-7-11,82.9,67.2,52.0,60.1,55.8,51.4,99,72,39,30.03,29.92,5,0,6,0.00
2013-7-12,83.5,68.8,54.2,62.4,58.5,52.8,96,72,45,30.02,29.93,8,1,12,0.00
2013-7-13,85.1,70.9,62.0,66.0,60.6,56.4,89,71,46,30.04,29.93,9,1,10,0.00
2013-7-14,85.5,73.0,58.3,67.9,63.3,56.6,95,74,50,30.11,30.04,11,1,11,0.00
2013-7-15,88.0,75.2,62.0,71.7,67.3,60.8,97,78,54,30.17,30.09,6,1,8,0.00
2013-7-16,90.9,79.7,69.4,74.8,71.9,67.8,99,79,53,30.12,30.03,10,1,11,0.00
2013-7-17,89.3,79.5,69.4,73.0,70.4,68.6,99,76,53,30.11,29.99,11,1,11,0.00
2013-7-18,90.7,80.1,69.8,75.8,70.9,67.5,93,75,55,29.99,29.61,11,2,14,0.05
2013-7-19,84.3,76.3,61.2,72.6,66.0,56.7,92,72,48,29.69,29.51,15,2,16,0.01
2013-7-20,75.7,65.3,56.2,59.4,53.5,47.0,92,68,40,29.91,29.69,7,1,8,0.00
2013-7-21,56.7,56.7,56.7,49.9,49.9,49.6,78,78,78,29.91,29.91,0,0,1,0.00
2013-7-22,82.2,69.5,54.5,72.0,64.6,53.4,97,86,63,29.81,29.50,9,1,11,0.35
2013-7-23,69.1,58.9,48.8,58.0,50.9,46.9,98,77,49,29.93,29.65,10,1,11,0.00
2013-7-24,72.0,58.6,43.7,55.7,50.7,42.8,98,77,50,30.01,29.92,7,0,8,0.00
2013-7-25,79.1,59.3,49.3,68.5,55.8,48.2,98,89,60,29.93,29.79,7,0,13,0.16
2013-7-26,70.2,59.3,47.3,65.3,57.1,44.6,98,93,77,29.88,29.72,9,0,13,0.01
2013-7-27,55.7,49.4,45.3,49.5,46.0,42.5,97,88,74,29.86,29.75,10,1,11,0.00
2013-7-28,57.8,51.5,45.1,52.9,49.3,44.3,98,92,81,29.94,29.76,12,2,12,0.00
2013-7-29,75.3,60.5,44.0,58.2,51.7,43.2,99,76,48,30.06,29.94,6,0,7,0.00
2013-7-30,71.0,61.3,52.6,63.0,58.2,51.2,99,90,68,30.08,29.97,8,0,8,0.40
2013-7-31,74.3,65.3,53.2,64.4,59.9,52.0,98,84,56,29.97,29.81,11,1,16,0.00
2013-8-1,72.7,61.0,49.7,58.5,54.0,48.9,98,79,55,29.86,29.77,9,1,13,0.00
2013-8-2,74.4,62.0,51.2,57.8,53.8,49.4,99,77,46,29.90,29.71,9,1,11,0.03
2013-8-3,72.0,59.7,46.9,55.3,51.0,46.1,99,76,44,30.09,29.90,9,1,13,0.00
2013-8-4,71.0,57.6,42.7,54.4,48.4,41.6,99,75,44,30.17,30.00,6,0,8,0.00
2013-8-5,67.0,58.2,50.8,65.0,56.9,49.0,99,95,89,30.00,29.74,3,0,6,0.70
2013-8-6,75.4,66.0,59.2,65.1,61.1,57.9,99,86,60,29.76,29.62,7,1,9,0.49
2013-8-7,71.8,61.8,49.1,61.2,56.0,46.6,99,83,47,29.93,29.54,10,1,10,0.04
2013-8-8,75.5,59.0,43.5,58.4,51.4,42.8,99,79,44,29.98,29.89,8,1,10,0.00
2013-8-9,72.2,61.9,55.9,56.6,53.1,47.7,97,75,47,29.99,29.85,12,1,16,0.01
2013-8-10,68.8,60.3,52.1,58.2,54.2,50.6,97,82,59,30.06,29.99,6,0,7,0.00
2013-8-11,76.3,61.0,45.6,59.2,53.4,44.5,99,79,46,30.03,29.91,7,0,8,0.00
2013-8-12,74.5,61.6,46.6,61.0,55.2,44.4,99,81,50,29.97,29.84,10,1,13,0.00
2013-8-13,65.5,52.8,41.6,51.7,45.9,40.5,98,79,52,30.12,29.97,8,0,8,0.00
2013-8-14,69.3,52.3,37.3,51.0,44.8,36.3,98,78,48,30.16,30.04,6,0,7,0.00
2013-8-15,77.0,59.8,43.3,57.3,50.2,42.0,97,74,42,30.05,29.98,11,1,11,0.00
2013-8-16,80.8,62.7,45.7,59.8,53.3,44.6,99,75,36,30.09,30.03,6,0,6,0.00
2013-8-17,81.0,64.9,49.5,60.2,55.0,48.3,99,74,43,30.14,30.04,7,1,9,0.00
2013-8-18,81.0,64.9,49.5,61.1,55.7,48.0,98,75,46,30.09,29.95,8,1,12,0.00
2013-8-19,79.5,68.3,57.9,67.2,61.7,55.6,92,80,64,29.96,29.84,10,1,12,0.00
2013-8-20,86.5,71.7,62.9,70.6,65.8,61.8,96,83,59,29.89,29.79,9,1,14,0.00
2013-8-21,86.4,74.0,61.6,75.0,68.3,60.7,98,83,66,29.89,29.71,11,1,14,0.00
2013-8-22,82.3,67.7,54.3,60.7,55.5,48.0,98,70,32,30.06,29.88,5,0,7,0.00
2013-8-23,80.8,63.0,47.6,60.8,53.5,46.4,97,75,48,30.11,30.03,5,1,8,0.00
2013-8-24,81.7,70.0,55.1,67.2,62.3,54.3,97,78,53,30.12,29.95,5,2,15,0.00
2013-8-25,92.0,80.1,70.7,75.5,71.6,66.8,91,76,56,29.97,29.83,13,2,13,0.00
2013-8-26,86.5,75.0,65.7,76.3,71.4,65.1,99,89,71,29.93,29.80,8,1,13,0.99
2013-8-27,82.8,73.7,68.1,77.5,72.0,67.4,100,95,83,29.84,29.69,3,0,4,1.02
2013-8-28,86.5,72.9,65.0,70.3,66.4,61.1,100,83,43,29.93,29.79,3,0,4,0.01
2013-8-29,81.6,70.7,63.4,71.4,67.1,62.7,99,90,64,29.97,29.75,9,1,9,3.13
2013-8-30,78.8,69.7,57.3,71.1,65.5,56.5,99,88,63,29.82,29.69,7,1,9,0.00
2013-8-31,83.3,65.8,53.7,66.9,60.7,53.2,100,86,53,29.82,29.67,4,0,5,0.01
2013-9-1,73.0,66.1,58.7,66.0,62.1,56.8,99,88,68,29.77,29.59,10,1,12,0.11
2013-9-2,59.1,53.7,46.4,57.0,50.6,45.3,98,89,77,29.96,29.77,8,1,8,0.01
2013-9-3,71.6,56.4,41.2,56.2,49.7,40.6,99,81,51,30.00,29.88,8,1,14,0.00
2013-9-4,73.5,62.1,54.1,60.9,56.0,52.2,98,82,54,30.06,29.89,9,0,9,0.00
2013-9-5,74.2,62.1,40.9,55.7,51.1,40.4,99,71,41,30.23,30.10,4,0,6,0.00
2013-9-6,81.3,65.3,49.2,69.9,60.4,48.4,98,85,67,30.12,29.82,7,0,9,0.00
2013-9-7,86.8,70.6,53.9,72.2,65.1,51.7,98,84,58,29.98,29.77,9,0,10,0.00
2013-9-8,71.1,58.2,45.2,56.2,51.3,44.5,99,80,52,30.05,29.90,5,0,8,0.01
2013-9-9,79.0,65.4,56.3,73.4,63.5,54.1,99,94,80,29.91,29.58,5,0,8,0.11
2013-9-10,80.9,68.7,59.4,69.7,65.3,58.5,99,90,60,29.81,29.60,8,1,11,0.08
2013-9-11,78.7,64.9,53.8,66.4,60.0,52.2,99,86,55,29.90,29.81,10,1,13,0.01
2013-9-12,63.6,55.6,44.4,56.4,50.1,42.7,98,83,62,30.11,29.87,11,1,11,0.00
2013-9-13,64.8,48.5,37.5,48.5,42.6,37.0,99,83,48,30.18,30.05,5,0,8,0.00
2013-9-14,68.5,53.1,38.7,54.0,46.9,37.6,98,82,52,30.06,29.89,9,1,12,0.13
2013-9-15,57.6,51.2,36.1,56.8,49.6,35.3,99,94,84,30.23,29.88,8,0,9,0.17
2013-9-16,63.7,45.4,30.6,45.6,38.8,30.1,99,81,44,30.39,30.23,4,0,6,0.00
2013-9-17,67.5,48.3,32.4,53.2,43.7,31.9,99,86,52,30.29,30.00,9,1,9,0.01
2013-9-18,63.7,58.9,54.6,63.1,58.4,53.0,99,98,94,30.00,29.74,7,0,7,0.25
2013-9-19,75.9,66.6,60.2,71.4,65.7,59.9,100,97,85,29.75,29.57,15,0,19,1.10
2013-9-20,68.9,60.3,49.0,64.0,57.5,46.5,100,91,66,29.71,29.55,13,2,13,0.04
2013-9-21,54.1,45.9,35.0,46.6,42.9,34.2,98,90,67,29.93,29.71,8,1,9,0.03
2013-9-22,61.1,42.6,31.4,46.8,38.3,30.8,99,87,52,30.05,29.93,6,0,7,0.01
2013-9-23,66.9,49.3,34.7,53.3,44.5,34.1,99,85,59,30.06,29.97,5,1,6,0.00
2013-9-24,72.2,52.3,37.4,57.9,48.3,36.7,99,88,56,30.03,29.91,4,0,4,0.00
2013-9-25,71.3,52.6,39.6,55.4,47.4,39.1,99,85,49,29.97,29.89,4,0,4,0.01
2013-9-26,72.9,54.1,40.9,55.3,48.7,40.0,99,85,49,30.01,29.95,5,1,7,0.00
2013-9-27,77.7,61.5,46.3,59.4,52.4,45.8,99,75,46,30.03,29.89,8,1,11,0.00
2013-9-28,74.5,60.3,51.2,62.0,53.9,48.3,97,80,60,29.92,29.61,10,2,19,0.41
2013-9-29,69.0,53.6,41.8,51.3,46.7,41.3,99,81,42,29.91,29.79,7,1,8,0.01
2013-9-30,70.3,56.1,45.7,49.7,46.8,44.6,96,74,44,29.85,29.64,12,1,14,0.00
2013-10-1,75.4,63.0,54.1,58.6,47.9,36.4,91,61,29,29.83,29.59,13,2,15,0.00
2013-10-2,73.3,54.7,36.7,48.8,41.1,34.7,96,65,29,29.99,29.83,6,0,6,0.00
2013-10-3,63.6,53.9,45.8,56.3,50.9,45.2,99,90,68,29.96,29.81,6,0,7,0.87
2013-10-4,55.1,52.4,50.7,53.5,51.7,50.2,98,97,93,30.00,29.87,7,0,8,0.26
2013-10-5,56.5,53.3,51.6,56.2,53.0,51.1,100,99,98,29.98,29.60,7,1,9,0.74
2013-10-6,58.7,52.7,46.3,54.9,49.3,44.6,100,89,61,29.63,29.55,8,1,8,0.30
2013-10-7,58.4,47.5,37.5,45.9,42.1,36.7,98,83,51,29.97,29.59,10,1,13,0.01
2013-10-8,72.5,53.4,34.2,48.4,42.5,33.4,99,71,40,30.03,29.92,12,1,12,0.00
2013-10-9,72.5,60.2,50.0,53.5,49.0,46.4,89,68,46,30.03,29.95,11,1,14,0.00
2013-10-10,70.7,53.8,38.0,51.5,45.0,37.2,99,76,44,30.06,29.96,5,0,7,0.00
2013-10-11,70.9,56.4,40.9,57.4,50.2,40.1,99,81,58,29.98,29.78,10,2,11,0.00
2013-10-12,65.8,58.0,47.2,57.7,48.5,39.8,85,71,51,29.96,29.71,13,3,16,0.00
2013-10-13,56.2,46.7,32.4,43.5,38.9,31.0,95,76,48,30.35,29.96,9,1,11,0.00
2013-10-14,57.2,42.8,28.3,43.9,35.2,27.3,98,77,47,30.40,30.12,6,0,7,0.00
2013-10-15,52.0,48.8,45.5,51.5,47.6,41.7,99,96,86,30.12,29.61,8,1,10,0.62
2013-10-16,47.6,42.4,30.7,47.1,40.6,29.8,99,93,80,29.83,29.61,6,1,9,0.09
2013-10-17,54.4,38.6,27.8,41.3,34.8,27.3,99,88,58,29.83,29.69,9,0,9,0.00
2013-10-18,42.9,39.3,30.6,42.4,38.5,30.1,99,97,93,29.83,29.68,9,0,9,0.36
2013-10-19,46.7,36.7,29.0,37.9,34.0,28.5,99,91,62,29.78,29.60,8,1,11,0.08
2013-10-20,42.4,34.5,31.9,37.0,33.0,31.2,98,95,73,29.74,29.60,4,0,5,0.15
2013-10-21,34.1,31.8,28.0,33.6,28.3,22.6,98,87,70,29.76,29.61,15,4,17,0.09
2013-10-22,39.1,33.5,31.3,32.2,29.8,26.0,97,86,68,29.91,29.72,16,2,16,0.01
2013-10-23,37.2,32.2,29.1,29.3,26.5,21.9,89,80,60,29.92,29.86,9,2,12,0.01
2013-10-24,38.3,32.4,26.9,30.5,27.4,24.0,95,83,63,30.19,29.92,12,2,14,0.00
2013-10-25,48.6,36.3,25.1,39.8,28.7,23.7,96,75,55,30.21,29.59,20,2,20,0.00
2013-10-26,49.0,39.1,34.7,40.1,33.2,28.6,94,80,66,29.94,29.59,13,2,16,0.03
2013-10-27,51.4,38.6,31.6,33.6,31.2,29.2,93,76,49,30.08,29.72,11,2,13,0.00
2013-10-28,39.1,30.4,21.6,31.1,22.2,18.6,93,73,47,30.42,30.08,10,1,13,0.00
2013-10-29,34.9,29.1,19.7,33.5,26.3,17.8,97,89,66,30.43,30.13,7,0,7,0.02
2013-10-30,48.5,41.2,34.2,48.2,40.7,33.4,99,98,97,30.13,29.66,4,0,5,0.07
2013-10-31,52.1,49.3,44.4,51.8,49.1,44.1,100,99,99,29.66,29.10,9,0,9,0.15
2013-11-1,44.4,40.4,36.8,44.1,39.5,36.2,99,96,91,29.67,29.11,12,1,12,0.05
2013-11-2,40.4,35.4,30.0,36.4,34.2,29.5,99,95,80,30.09,29.67,6,0,8,0.09
2013-11-3,43.1,35.2,25.8,36.6,32.5,25.3,99,90,71,30.22,30.09,9,2,10,0.00
2013-11-4,46.4,42.5,39.7,42.7,39.1,35.7,97,88,74,30.12,29.88,12,4,14,0.09
2013-11-5,45.4,38.2,30.7,39.2,34.6,30.2,99,88,65,30.19,29.89,7,1,10,0.24
2013-11-6,34.1,32.7,32.4,33.1,32.1,31.7,98,98,96,29.92,29.78,6,0,10,0.01
2013-11-7,33.8,30.0,21.1,26.6,23.8,19.4,93,78,64,30.13,30.04,12,2,12,0.00
2013-11-8,37.3,26.8,21.5,31.9,23.9,20.0,97,89,67,30.18,29.70,6,1,9,0.03
2013-11-9,37.6,35.4,32.7,37.1,32.8,30.2,98,90,84,29.91,29.56,18,5,20,0.32
2013-11-10,37.7,35.1,32.7,31.5,29.3,27.4,95,79,68,30.20,29.91,15,3,17,0.00
2013-11-11,33.2,24.3,20.2,31.3,17.8,11.5,94,76,60,30.53,29.97,14,2,15,0.00
2013-11-12,26.2,19.5,12.2,16.2,10.4,4.3,89,69,41,30.64,30.41,12,2,13,0.00
2013-11-13,44.5,30.6,16.0,30.1,21.8,9.8,83,70,56,30.41,29.83,17,3,17,0.00
2013-11-14,37.5,33.7,31.1,30.8,28.3,26.0,92,80,73,29.83,29.72,5,1,7,0.00
2013-11-15,50.4,36.5,25.5,39.7,32.8,24.8,98,87,66,29.82,29.73,9,1,11,0.00
2013-11-16,52.4,42.2,36.8,51.8,40.1,33.2,99,92,81,29.74,29.33,12,2,12,0.58
2013-11-17,51.4,42.0,32.9,50.6,39.9,30.5,98,92,83,29.50,29.19,27,3,27,0.05
2013-11-18,32.7,27.5,24.6,31.0,21.5,18.1,94,78,72,30.25,29.50,28,5,28,0.00
2013-11-19,35.5,26.6,14.9,25.8,19.8,13.2,95,76,55,30.36,30.18,10,2,10,0.00
2013-11-20,36.0,32.8,31.0,30.8,27.9,25.2,97,83,69,30.18,30.10,13,2,13,0.00
2013-11-21,33.4,31.5,26.2,32.9,30.6,24.1,98,96,91,30.37,30.10,9,0,10,0.00
2013-11-22,29.5,23.7,15.3,23.8,17.1,6.7,93,77,52,30.50,30.38,14,2,14,0.00
2013-11-23,15.1,9.6,4.3,8.4,2.8,-0.8,86,74,62,30.73,30.45,12,2,14,0.01
2013-11-24,21.5,8.6,-2.7,12.3,2.0,-5.4,89,75,55,30.70,30.06,16,2,19,0.00
2013-11-25,32.2,27.9,21.5,27.0,21.5,12.3,84,77,66,30.06,29.88,16,3,17,0.00
2013-11-26,29.4,16.7,6.7,25.2,10.0,2.6,89,75,61,30.26,29.94,16,2,16,0.00
2013-11-27,23.9,16.0,6.6,14.9,10.3,4.1,92,79,54,30.33,30.21,9,0,9,0.00
2013-11-28,22.4,16.7,10.2,17.1,13.5,8.0,93,87,74,30.52,30.17,6,0,6,0.00
2013-11-29,24.0,18.6,9.7,18.6,15.0,7.7,94,86,72,30.63,30.32,10,1,10,0.00
2013-11-30,35.2,28.7,23.8,27.1,23.5,18.0,86,81,71,30.32,30.05,8,0,8,0.02
2013-12-1,32.4,29.8,27.6,27.7,25.5,23.4,93,84,72,30.18,29.99,2,0,2,0.00
2013-12-2,32.0,29.1,24.2,28.1,25.2,21.6,93,85,79,29.99,29.81,10,2,10,0.00
2013-12-3,30.3,27.6,22.9,29.1,26.3,21.2,96,95,91,29.91,29.78,7,1,7,0.00
2013-12-4,32.2,26.8,22.9,31.5,25.7,21.4,97,96,94,29.90,29.53,8,1,8,0.00
2013-12-5,30.8,8.0,1.1,29.5,4.4,-2.3,95,85,80,30.23,29.45,12,3,17,0.00
2013-12-6,6.7,-0.9,-7.1,1.5,-4.5,-10.2,87,84,78,30.59,30.23,10,1,10,0.00
2013-12-7,3.1,-5.6,-12.9,-2.4,-9.7,-16.4,86,82,72,30.72,30.58,7,1,7,0.00
2013-12-8,9.6,1.3,-10.3,6.2,-1.9,-13.6,90,86,80,30.65,30.08,4,0,4,0.00
2013-12-9,9.4,2.8,-10.5,6.9,-0.8,-13.8,90,84,74,30.09,29.90,14,1,14,0.00
2013-12-10,6.3,-1.5,-10.6,1.5,-5.3,-13.9,87,84,79,30.24,29.89,9,1,12,0.00
2013-12-11,-1.2,-6.7,-10.9,-7.1,-11.0,-14.6,87,81,72,30.51,30.24,10,1,10,0.00
2013-12-12,10.5,2.0,-10.8,5.5,-1.9,-14.5,86,83,78,30.44,30.22,9,1,11,0.00
2013-12-13,8.9,5.9,0.9,5.7,1.6,-2.8,90,82,73,30.42,30.23,7,0,7,0.00
2013-12-14,16.6,10.3,1.4,11.9,6.9,-2.5,91,86,79,30.41,29.94,6,0,6,0.00
2013-12-15,11.5,0.0,-14.3,8.6,-4.3,-18.0,88,82,73,30.19,29.93,12,1,12,0.00
2013-12-16,11.7,-1.0,-18.9,6.4,-4.6,-22.7,91,84,70,30.22,29.99,9,0,10,0.00
2013-12-17,24.6,16.1,8.6,21.9,13.5,6.5,94,89,81,30.04,29.86,0,0,0,0.00
2013-12-18,25.4,10.3,-1.9,15.0,5.6,-4.8,90,81,60,30.06,29.74,0,0,0,0.00
2013-12-19,20.9,13.5,3.5,18.2,10.3,0.9,94,87,79,30.15,29.80,0,0,0,0.00
2013-12-20,19.7,14.8,6.4,16.2,12.3,4.2,93,90,85,30.10,29.89,0,0,0,0.00
2013-12-21,24.1,20.0,17.0,20.3,17.6,15.3,93,90,84,30.03,29.89,0,0,0,0.00
2013-12-22,23.6,19.7,16.3,20.1,16.9,14.3,93,89,83,30.16,29.90,0,0,0,0.00
2013-12-23,16.6,10.1,-7.7,14.3,7.1,-11.1,92,87,80,30.45,30.16,0,0,0,0.00
2013-12-24,15.8,2.0,-14.9,8.1,-2.6,-18.4,91,81,66,30.55,30.26,0,0,0,0.00
2013-12-25,14.5,10.5,6.6,11.1,7.5,3.7,90,87,82,30.26,30.08,0,0,0,0.00
2013-12-26,14.6,9.7,3.3,12.9,6.4,0.3,93,86,79,30.25,30.08,0,0,0,0.00
2013-12-27,29.5,22.1,14.6,26.4,20.2,12.9,94,92,87,30.25,29.91,0,0,0,0.00
2013-12-28,36.4,29.5,23.5,33.2,28.1,21.7,98,95,87,29.99,29.75,0,0,0,0.06
2013-12-29,23.2,4.9,-12.8,21.5,0.3,-16.7,94,81,68,30.25,29.81,0,0,0,0.00
2013-12-30,-1.8,-10.3,-21.9,-9.7,-15.9,-26.0,84,76,61,30.37,30.25,0,0,0,0.00
2013-12-31,-1.5,-9.5,-18.6,-9.5,-14.2,-22.4,85,79,67,30.51,30.23,0,0,0,0.00
2014-1-1,3.1,-3.7,-18.9,-4.1,-8.6,-22.7,85,79,70,30.60,30.49,0,0,0,0.00
2014-1-2,6.7,-4.1,-15.5,-2.5,-8.8,-19.3,88,80,63,30.51,30.46,0,0,0,0.00